Simultaneous Nadir Overpasses (SNOs) Predictions

Prediction of SNOs between LANDSAT-8 and METOP-A Satellite Orbit:

Table of predicted SNOs for the next 14.0 days since TLE Epoch: 12/5/2020
Index Date (LANDSAT-8) Time (LANDSAT-8) Lat,Lon (LANDSAT-8) SZA (LANDSAT-8 ) Date (METOP-A) Time (METOP-A) Lat,Lon (METOP-A) SZA (METOP-A ) Distance(km) Time Diff (sec)
1 12/07/2020 17:43:22 81.43, -40.42 106.76 12/07/2020 17:42:31 81.45, -40.46 106.74 1.60 51
2 12/07/2020 18:32:49 -81.43, 127.15 73.25 12/07/2020 18:33:11 -81.44, 127.09 73.24 1.56 22
3 12/10/2020 13:17:37 81.44, 26.07 107.00 12/10/2020 13:16:53 81.44, 25.94 106.97 2.35 44
4 12/10/2020 14:07:04 -81.43,-166.34 73.01 12/10/2020 14:07:33 -81.44,-166.47 73.01 2.35 29
5 12/13/2020 08:51:51 81.43, 92.50 107.17 12/13/2020 08:51:14 81.44, 92.31 107.14 3.20 37
6 12/13/2020 09:41:18 -81.43, -99.88 72.84 12/13/2020 09:41:54 -81.44,-100.07 72.84 3.13 36
7 12/16/2020 04:26:06 81.43, 158.88 107.27 12/16/2020 04:25:35 81.43, 159.06 107.28 3.07 31
8 12/16/2020 05:15:33 -81.43, -33.47 72.73 12/16/2020 05:16:15 -81.43, -33.29 72.70 3.13 42
9 12/19/2020 00:00:21 81.43,-134.80 107.30 12/18/2020 23:59:57 81.44,-134.61 107.32 3.21 24



Historial Predications of SNOs between LANDSAT-8 and METOP-A
